Weather History for Challis, ID

Change the Weather History Date:

Tuesday, May 7, 2013

  Actual Average Record
Temperature  
Mean Temperature 55 °F 49 °F  
Max Temperature 75 °F 63 °F 86 °F (1947)
Min Temperature 35 °F 35 °F 18 °F (1915)
Degree Days  
Heating Degree Days 10 16  
Month to date heating degree days 114 117  
Since 1 July heating degree days 7397 7708  
Cooling Degree Days 0 0  
Month to date cooling degree days 0 0  
Year to date cooling degree days 0 0  
Growing Degree Days 5 (Base 50)    
Moisture  
Dew Point 31 °F    
Average Humidity 43    
Maximum Humidity 70    
Minimum Humidity 16    
Precipitation  
Precipitation 0.01 in 0.04 in 0.85 in (1958)
Month to date precipitation 0.02 0.24  
Year to date precipitation 0.50 2.90  
Sea Level Pressure  
Sea Level Pressure 29.85 in    
Wind  
Wind Speed 5 mph (East)    
Max Wind Speed 22 mph    
Max Gust Speed 30 mph    
Visibility 10 miles    
Events Rain , Thunderstorm    
T = Trace of Precipitation, MM = Missing Value Source: NWS Daily Summary

Daily Weather History Graph

Daily Weather History Graph

Search for Another Location

Airport:

Trip Planner

Search our weather history database for the weather conditions in past years. The results will help you decide how hot, cold, wet, or windy it might be!

Date:

Astronomy

May. 07, 2013 Rise Set
Actual Time 6:18 AM MDT 8:48 PM MDT
Civil Twilight 5:45 AM MDT 9:21 PM MDT
Nautical Twilight 5:04 AM MDT 10:03 PM MDT
Astronomical Twilight 4:18 AM MDT 10:50 PM MDT
Moon 5:00 AM MDT (5/7) 6:48 PM MDT (5/7)
Length of Visible Light 15h 36m
Length of Day
14h 30m
Waning Crescent, 5% of the Moon is Illuminated
May 7
Waning Crescent
May 9
New
May 17
First Quarter
May 24
Full
May 31
Last Quarter

Hourly Weather History & Observations

Time (MDT) Temp. Windchill Dew Point Humidity Pressure Visibility Wind Dir Wind Speed Gust Speed Precip Events Conditions
12:55 AM 46.0 °F - 28.9 °F 51% 29.83 in 10.0 mi Calm Calm - N/A   Clear
1:55 AM 46.0 °F 44.8 °F 28.0 °F 50% 29.82 in 10.0 mi NNW 3.5 mph - N/A   Clear
2:55 AM 42.1 °F - 27.0 °F 55% 29.84 in 10.0 mi Calm Calm - N/A   Clear
3:55 AM 41.0 °F - 27.0 °F 57% 29.85 in 10.0 mi Calm Calm - N/A   Clear
4:55 AM 37.9 °F - 26.1 °F 62% 29.89 in 10.0 mi Calm Calm - N/A   Clear
5:55 AM 37.9 °F - 26.1 °F 62% 29.88 in 10.0 mi Calm Calm - N/A   Clear
6:55 AM 37.9 °F 35.5 °F 28.0 °F 68% 29.90 in 10.0 mi South 3.5 mph - N/A   Clear
7:55 AM 43.0 °F - 30.0 °F 60% 29.89 in 10.0 mi Calm Calm - N/A   Clear
8:55 AM 48.0 °F - 30.9 °F 52% 29.89 in 10.0 mi Calm Calm - N/A   Clear
9:55 AM 53.1 °F - 30.0 °F 41% 29.87 in 10.0 mi ESE 3.5 mph - N/A   Clear
10:55 AM 57.9 °F - 30.0 °F 35% 29.85 in 10.0 mi Calm Calm - N/A   Clear
11:55 AM 64.0 °F - 30.9 °F 29% 29.80 in 10.0 mi Calm Calm - N/A   Clear
12:55 PM 69.1 °F - 28.9 °F 22% 29.77 in 10.0 mi NNE 4.6 mph - N/A   Clear
1:55 PM 73.0 °F - 25.0 °F 17% 29.73 in 10.0 mi North 10.4 mph - N/A   Mostly Cloudy
2:55 PM 73.9 °F - 26.1 °F 17% 29.73 in 10.0 mi NNE 9.2 mph - N/A   Scattered Clouds
3:55 PM 73.9 °F - 24.1 °F 16% 29.73 in 10.0 mi North 6.9 mph - N/A   Clear
4:55 PM 70.0 °F - 27.0 °F 20% 29.75 in 10.0 mi NNE 18.4 mph 23.0 mph N/A   Mostly Cloudy
5:07 PM 69.8 °F - 26.6 °F 20% 29.85 in 10.0 mi North 10.4 mph - N/A   Mostly Cloudy
5:55 PM 68.0 °F - 28.0 °F 22% 29.78 in 10.0 mi SSW 15.0 mph 23.0 mph N/A   Mostly Cloudy
6:06 PM 69.8 °F - 28.4 °F 21% 29.88 in 10.0 mi South 17.3 mph - N/A   Mostly Cloudy
6:53 PM 62.6 °F - 33.8 °F 34% 29.92 in 9.0 mi SSE 10.4 mph 25.3 mph 0.01 in Rain Light Rain
6:55 PM 62.1 °F - 34.0 °F 35% 29.85 in 10.0 mi South 11.5 mph 21.9 mph 0.01 in Rain Light Rain
7:06 PM 60.8 °F - 35.6 °F 39% 29.93 in 10.0 mi East 8.1 mph - 0.00 in Thunderstorm Overcast
7:37 PM 59.0 °F - 37.4 °F 45% 29.96 in 10.0 mi South 6.9 mph - 0.00 in   Overcast
7:55 PM 57.9 °F - 37.0 °F 46% 29.88 in 10.0 mi SSE 6.9 mph - 0.00 in Rain Light Rain
8:55 PM 57.0 °F - 37.9 °F 49% 29.92 in 10.0 mi East 8.1 mph - 0.00 in   Overcast
9:55 PM 53.1 °F - 42.1 °F 66% 29.92 in 10.0 mi WNW 12.7 mph - 0.00 in Rain Light Rain
10:55 PM 50.0 °F - 39.9 °F 68% 29.94 in 10.0 mi NW 4.6 mph - 0.00 in   Clear
11:55 PM 50.0 °F - 37.9 °F 63% 29.93 in 10.0 mi Calm Calm - N/A   Clear